TimeEST,TemperatureF,Dew PointF,Humidity,Sea Level PressureIn,VisibilityMPH,Wind Direction,Wind SpeedMPH,Gust SpeedMPH,PrecipitationIn,Events,Conditions,WindDirDegrees,DateUTC
12:53 AM,50.0,45.0,83,30.29,10.0,Calm,Calm,-,N/A,,Clear,0,2012-12-31 05:53:00
1:53 AM,48.9,45.0,86,30.30,10.0,Calm,Calm,-,N/A,,Clear,0,2012-12-31 06:53:00
2:53 AM,48.0,45.0,89,30.29,10.0,NE,3.5,-,N/A,,Clear,40,2012-12-31 07:53:00
3:53 AM,46.9,45.0,93,30.27,10.0,NNE,4.6,-,N/A,,Clear,30,2012-12-31 08:53:00
4:53 AM,48.0,45.0,89,30.27,10.0,NNE,4.6,-,N/A,,Clear,20,2012-12-31 09:53:00
5:53 AM,46.9,45.0,93,30.26,10.0,NE,6.9,-,N/A,,Clear,50,2012-12-31 10:53:00
6:53 AM,46.4,44.6,93,30.28,9.0,NE,8.1,-,N/A,,Clear,40,2012-12-31 11:53:00
7:53 AM,48.9,46.9,93,30.28,9.0,NE,6.9,-,N/A,,Clear,40,2012-12-31 12:53:00
8:53 AM,55.0,50.0,83,30.30,10.0,ENE,8.1,-,N/A,,Clear,60,2012-12-31 13:53:00
9:53 AM,63.0,53.1,70,30.30,10.0,East,10.4,-,N/A,,Clear,80,2012-12-31 14:53:00
10:53 AM,70.0,54.0,57,30.30,10.0,East,9.2,-,N/A,,Clear,90,2012-12-31 15:53:00
11:53 AM,72.0,54.0,53,30.28,10.0,East,16.1,-,N/A,,Clear,100,2012-12-31 16:53:00
12:53 PM,73.9,54.0,50,30.25,10.0,ESE,10.4,19.6,N/A,,Clear,110,2012-12-31 17:53:00
1:53 PM,75.0,55.0,50,30.22,10.0,SE,8.1,20.7,N/A,,Clear,130,2012-12-31 18:53:00
2:53 PM,75.9,55.0,48,30.19,10.0,SSE,6.9,-,N/A,,Partly Cloudy,150,2012-12-31 19:53:00
3:53 PM,75.9,55.0,48,30.17,10.0,SE,11.5,-,N/A,,Clear,130,2012-12-31 20:53:00
4:53 PM,75.0,55.0,50,30.17,10.0,SSE,9.2,-,N/A,,Clear,150,2012-12-31 21:53:00
5:53 PM,71.1,54.0,55,30.19,10.0,ESE,3.5,-,N/A,,Clear,120,2012-12-31 22:53:00
6:53 PM,66.9,55.0,66,30.19,10.0,East,4.6,-,N/A,,Clear,100,2012-12-31 23:53:00
7:53 PM,62.6,55.4,77,30.21,10.0,East,5.8,-,N/A,,Clear,90,2013-01-01 00:53:00
8:53 PM,62.1,55.0,78,30.21,10.0,East,5.8,-,N/A,,Clear,100,2013-01-01 01:53:00
9:53 PM,61.0,55.0,81,30.22,10.0,ESE,4.6,-,N/A,,Scattered Clouds,110,2013-01-01 02:53:00
10:53 PM,61.0,55.9,83,30.22,10.0,Calm,Calm,-,N/A,,Mostly Cloudy,0,2013-01-01 03:53:00
11:53 PM,59.0,55.0,87,30.21,10.0,NE,3.5,-,N/A,,Overcast,50,2013-01-01 04:53:00